Location: Lecco
(45.8566°N, 9.3977°E)
Time: 12:02:03
(UTC+02:00)

Explorer 11/Cluster Stage 4 - Pass Details

Date: 22 August 2020
Orbit: 467 x 1258 km, 28.8° (Epoch: 24 September)

Event Time Altitude Azimuth Distance (km) Brightness Sun altitude
Rises 20:36:49 0° 236° (SW) 3,304 10.3 -3.9°
Reaches altitude 10° 20:40:04 10° 216° (SW) 2,533 9.4 -4.4°
Maximum altitude 20:43:51 17° 178° (S) 2,249 8.7 -5.0°
Drops below altitude 10° 20:48:03 10° 141° (SE) 2,881 8.9 -5.7°
Enters shadow 20:50:01 - 131° (SE) 3,382 9.2 -6.0°
Sets 20:52:07 0° 123° (ESE) 3,980 - -6.4°
